contact:dominique.lefevre@mio.osupytheas.fr, maurice.libes@osupytheas.fr, didier.mallarino@osupytheas.fr
Project:EMSO http://www.emso-fr.org/EMSO-France
Depth: 2436.0 m
Title:EMSO Ligure Ouest : Data MII capteur CSTAR
DateTime,Latitude,Longitude,Instrument_Serial,Reference_Counts,Signal_Counts,Corrected_Signal_raw_counts,Calculated_Beam_c_inverse_meters,Internal_thermistor_counts
DateTime,Latitude,Longitude,Instrument_Serial,Reference_Counts,Signal_Counts,Corrected_Signal_raw_counts,Calculated_Beam_c_inverse_meters,Internal_thermistor_counts
2023-05-29T00:00:23,42.805,6.029,CST-1368DR,4303,4714,11631,01.178,552
2023-05-29T00:03:25,42.805,6.029,CST-1368DR,4303,4714,11631,01.178,552
2023-05-29T00:06:26,42.805,6.029,CST-1368DR,4303,4714,11630,01.179,552
2023-05-29T00:09:28,42.805,6.029,CST-1368DR,4303,4714,11630,01.179,552
2023-05-29T00:12:29,42.805,6.029,CST-1368DR,4303,4715,11634,01.177,552
2023-05-29T00:15:31,42.805,6.029,CST-1368DR,4303,4716,11635,01.177,552
2023-05-29T00:18:32,42.805,6.029,CST-1368DR,4303,4713,11629,01.179,552
2023-05-29T00:21:34,42.805,6.029,CST-1368DR,4303,4716,11635,01.177,552
2023-05-29T00:24:36,42.805,6.029,CST-1368DR,4303,4715,11634,01.177,552
2023-05-29T00:27:37,42.805,6.029,CST-1368DR,4303,4715,11634,01.177,552
2023-05-29T00:30:39,42.805,6.029,CST-1368DR,4303,4716,11635,01.177,552
2023-05-29T00:33:40,42.805,6.029,CST-1368DR,4303,4715,11633,01.178,552
2023-05-29T00:36:42,42.805,6.029,CST-1368DR,4303,4715,11634,01.177,552
2023-05-29T00:39:43,42.805,6.029,CST-1368DR,4303,4715,11634,01.177,552
2023-05-29T00:42:45,42.805,6.029,CST-1368DR,4303,4717,11637,01.176,552
2023-05-29T00:45:47,42.805,6.029,CST-1368DR,4303,4715,11634,01.177,552
2023-05-29T00:48:48,42.805,6.029,CST-1368DR,4303,4716,11635,01.177,552
2023-05-29T00:51:50,42.805,6.029,CST-1368DR,4303,4716,11637,01.176,552
2023-05-29T00:54:51,42.805,6.029,CST-1368DR,4303,4717,11639,01.176,552
2023-05-29T00:57:53,42.805,6.029,CST-1368DR,4303,4715,11634,01.177,552
2023-05-29T01:00:55,42.805,6.029,CST-1368DR,4303,4715,11633,01.178,552
2023-05-29T01:03:56,42.805,6.029,CST-1368DR,4303,4717,11637,01.176,552
2023-05-29T01:06:58,42.805,6.029,CST-1368DR,4303,4717,11638,01.176,552
2023-05-29T01:09:59,42.805,6.029,CST-1368DR,4303,4715,11632,01.178,552
2023-05-29T01:13:01,42.805,6.029,CST-1368DR,4303,4714,11631,01.178,552
2023-05-29T01:16:02,42.805,6.029,CST-1368DR,4303,4715,11633,01.178,552
2023-05-29T01:19:04,42.805,6.029,CST-1368DR,4303,4717,11638,01.176,552
2023-05-29T01:22:06,42.805,6.029,CST-1368DR,4303,4717,11638,01.176,552
2023-05-29T01:25:07,42.805,6.029,CST-1368DR,4303,4715,11634,01.177,552
2023-05-29T01:28:09,42.805,6.029,CST-1368DR,4303,4715,11633,01.178,552
2023-05-29T01:31:10,42.805,6.029,CST-1368DR,4303,4715,11634,01.177,552
2023-05-29T01:34:12,42.805,6.029,CST-1368DR,4303,4714,11631,01.178,552
2023-05-29T01:37:13,42.805,6.029,CST-1368DR,4303,4712,11626,01.180,552
2023-05-29T01:40:15,42.805,6.029,CST-1368DR,4303,4714,11630,01.179,552
2023-05-29T01:43:17,42.805,6.029,CST-1368DR,4303,4712,11626,01.180,552
2023-05-29T01:46:18,42.805,6.029,CST-1368DR,4303,4713,11627,01.180,552
2023-05-29T01:49:20,42.805,6.029,CST-1368DR,4303,4712,11626,01.180,552
2023-05-29T01:52:21,42.805,6.029,CST-1368DR,4303,4711,11624,01.181,552
2023-05-29T01:55:23,42.805,6.029,CST-1368DR,4303,4713,11629,01.179,552
2023-05-29T01:58:25,42.805,6.029,CST-1368DR,4303,4706,11611,01.185,552
2023-05-29T02:01:26,42.805,6.029,CST-1368DR,4303,4705,11609,01.186,552
2023-05-29T02:04:28,42.805,6.029,CST-1368DR,4303,4704,11607,01.187,552
2023-05-29T02:07:29,42.805,6.029,CST-1368DR,4303,4705,11608,01.186,552
2023-05-29T02:10:31,42.805,6.029,CST-1368DR,4303,4706,11610,01.186,552
2023-05-29T02:13:32,42.805,6.029,CST-1368DR,4302,4704,11610,01.186,552
2023-05-29T02:16:34,42.805,6.029,CST-1368DR,4303,4709,11618,01.183,552
2023-05-29T02:19:36,42.805,6.029,CST-1368DR,4303,4702,11602,01.188,552
2023-05-29T02:22:37,42.805,6.029,CST-1368DR,4303,4700,11597,01.190,552
2023-05-29T02:25:39,42.805,6.029,CST-1368DR,4302,4699,11595,01.191,552
2023-05-29T02:28:40,42.805,6.029,CST-1368DR,4303,4698,11592,01.192,552
2023-05-29T02:31:42,42.805,6.029,CST-1368DR,4303,4699,11594,01.191,552
2023-05-29T02:34:43,42.805,6.029,CST-1368DR,4303,4698,11592,01.192,552
2023-05-29T02:37:45,42.805,6.029,CST-1368DR,4303,4695,11584,01.195,552
2023-05-29T02:40:47,42.805,6.029,CST-1368DR,4303,4696,11586,01.194,552
2023-05-29T02:43:48,42.805,6.029,CST-1368DR,4302,4691,11578,01.197,551
2023-05-29T02:46:50,42.805,6.029,CST-1368DR,4302,4692,11579,01.196,552
2023-05-29T02:49:51,42.805,6.029,CST-1368DR,4302,4688,11570,01.200,552
2023-05-29T02:52:53,42.805,6.029,CST-1368DR,4302,4690,11573,01.198,552
2023-05-29T02:55:54,42.805,6.029,CST-1368DR,4302,4691,11578,01.197,552
2023-05-29T02:58:56,42.805,6.029,CST-1368DR,4302,4687,11566,01.201,552
2023-05-29T03:01:58,42.805,6.029,CST-1368DR,4302,4685,11563,01.202,552
2023-05-29T03:04:59,42.805,6.029,CST-1368DR,4302,4685,11562,01.202,552
2023-05-29T03:08:01,42.805,6.029,CST-1368DR,4302,4687,11567,01.201,552
2023-05-29T03:11:02,42.805,6.029,CST-1368DR,4302,4688,11568,01.200,552
2023-05-29T03:14:04,42.805,6.029,CST-1368DR,4302,4684,11560,01.203,552
2023-05-29T03:17:06,42.805,6.029,CST-1368DR,4302,4687,11566,01.201,552
2023-05-29T03:20:07,42.805,6.029,CST-1368DR,4302,4688,11570,01.200,552
2023-05-29T03:23:09,42.805,6.029,CST-1368DR,4302,4687,11566,01.201,552
2023-05-29T03:26:10,42.805,6.029,CST-1368DR,4302,4684,11560,01.203,552
2023-05-29T03:29:12,42.805,6.029,CST-1368DR,4302,4688,11569,01.200,552
2023-05-29T03:32:13,42.805,6.029,CST-1368DR,4302,4682,11554,01.205,552
2023-05-29T03:35:15,42.805,6.029,CST-1368DR,4302,4686,11563,01.202,552
2023-05-29T03:38:17,42.805,6.029,CST-1368DR,4302,4686,11565,01.201,552
2023-05-29T03:41:18,42.805,6.029,CST-1368DR,4302,4686,11565,01.201,552
2023-05-29T03:44:20,42.805,6.029,CST-1368DR,4302,4686,11565,01.201,552
2023-05-29T03:47:21,42.805,6.029,CST-1368DR,4302,4686,11564,01.202,552
2023-05-29T03:50:23,42.805,6.029,CST-1368DR,4302,4692,11580,01.196,552
2023-05-29T03:53:25,42.805,6.029,CST-1368DR,4302,4685,11563,01.202,552
2023-05-29T03:56:26,42.805,6.029,CST-1368DR,4302,4685,11562,01.202,552
2023-05-29T03:59:28,42.805,6.029,CST-1368DR,4302,4686,11565,01.201,552
2023-05-29T04:02:29,42.805,6.029,CST-1368DR,4302,4685,11562,01.202,552
2023-05-29T04:05:31,42.805,6.029,CST-1368DR,4302,4679,11548,01.207,552
2023-05-29T04:08:32,42.805,6.029,CST-1368DR,4302,4682,11554,01.205,552
2023-05-29T04:11:34,42.805,6.029,CST-1368DR,4302,4686,11563,01.202,552
2023-05-29T04:14:36,42.805,6.029,CST-1368DR,4302,4685,11561,01.203,552
2023-05-29T04:17:37,42.805,6.029,CST-1368DR,4302,4685,11562,01.202,552
2023-05-29T04:20:39,42.805,6.029,CST-1368DR,4302,4685,11563,01.202,552
2023-05-29T04:23:40,42.805,6.029,CST-1368DR,4302,4688,11568,01.200,552
2023-05-29T04:26:42,42.805,6.029,CST-1368DR,4302,4685,11562,01.202,552
2023-05-29T04:29:43,42.805,6.029,CST-1368DR,4302,4680,11549,01.207,552
2023-05-29T04:32:46,42.805,6.029,CST-1368DR,4302,4684,11560,01.203,552
2023-05-29T04:35:47,42.805,6.029,CST-1368DR,4302,4685,11562,01.202,552
2023-05-29T04:38:49,42.805,6.029,CST-1368DR,4302,4676,11541,01.210,552
2023-05-29T04:41:51,42.805,6.029,CST-1368DR,4302,4663,11508,01.221,552
2023-05-29T04:44:52,42.805,6.029,CST-1368DR,4302,4685,11562,01.202,552
2023-05-29T04:47:54,42.805,6.029,CST-1368DR,4302,4684,11560,01.203,552
2023-05-29T04:50:55,42.805,6.029,CST-1368DR,4302,4682,11555,01.205,552
2023-05-29T04:53:57,42.805,6.029,CST-1368DR,4302,4697,11591,01.192,552
2023-05-29T04:56:58,42.805,6.029,CST-1368DR,4302,4688,11570,01.200,552
2023-05-29T05:00:00,42.805,6.029,CST-1368DR,4302,4684,11560,01.203,552
2023-05-29T05:03:02,42.805,6.029,CST-1368DR,4302,4682,11554,01.205,552
2023-05-29T05:06:03,42.805,6.029,CST-1368DR,4302,4681,11553,01.205,552
2023-05-29T05:09:05,42.805,6.029,CST-1368DR,4302,4684,11558,01.204,552
2023-05-29T05:12:06,42.805,6.029,CST-1368DR,4302,4683,11556,01.204,552
2023-05-29T05:15:08,42.805,6.029,CST-1368DR,4302,4681,11553,01.205,552
2023-05-29T05:18:09,42.805,6.029,CST-1368DR,4302,4679,11548,01.207,552
2023-05-29T05:21:11,42.805,6.029,CST-1368DR,4302,4684,11560,01.203,552
2023-05-29T05:24:13,42.805,6.029,CST-1368DR,4302,4685,11562,01.202,552
2023-05-29T05:27:14,42.805,6.029,CST-1368DR,4302,4683,11558,01.204,552
2023-05-29T05:30:16,42.805,6.029,CST-1368DR,4302,4683,11557,01.204,552
2023-05-29T05:33:17,42.805,6.029,CST-1368DR,4302,4684,11558,01.204,552
2023-05-29T05:36:19,42.805,6.029,CST-1368DR,4302,4680,11550,01.206,552
2023-05-29T05:39:21,42.805,6.029,CST-1368DR,4302,4694,11584,01.195,552
2023-05-29T05:42:22,42.805,6.029,CST-1368DR,4302,4683,11557,01.204,552
2023-05-29T05:45:24,42.805,6.029,CST-1368DR,4302,4684,11558,01.204,552
2023-05-29T05:48:25,42.805,6.029,CST-1368DR,4302,4684,11560,01.203,552
2023-05-29T05:51:27,42.805,6.029,CST-1368DR,4302,4685,11561,01.203,552
2023-05-29T05:54:28,42.805,6.029,CST-1368DR,4302,4681,11552,01.206,552
2023-05-29T05:57:30,42.805,6.029,CST-1368DR,4302,4683,11556,01.204,552
2023-05-29T06:00:32,42.805,6.029,CST-1368DR,4302,4684,11558,01.204,552
2023-05-29T06:03:33,42.805,6.029,CST-1368DR,4302,4683,11556,01.204,552
2023-05-29T06:06:35,42.805,6.029,CST-1368DR,4302,4683,11556,01.204,552
2023-05-29T06:09:36,42.805,6.029,CST-1368DR,4302,4682,11554,01.205,552
2023-05-29T06:12:38,42.805,6.029,CST-1368DR,4302,4681,11553,01.205,552
2023-05-29T06:15:39,42.805,6.029,CST-1368DR,4302,4683,11558,01.204,552
2023-05-29T06:18:41,42.805,6.029,CST-1368DR,4302,4685,11562,01.202,552
2023-05-29T06:21:43,42.805,6.029,CST-1368DR,4302,4683,11557,01.204,552
2023-05-29T06:24:44,42.805,6.029,CST-1368DR,4302,4692,11579,01.196,552
2023-05-29T06:27:46,42.805,6.029,CST-1368DR,4302,4686,11563,01.202,552
2023-05-29T06:30:50,42.805,6.029,CST-1368DR,4302,4684,11558,01.204,552
2023-05-29T06:33:51,42.805,6.029,CST-1368DR,4302,4686,11564,01.202,552
2023-05-29T06:36:53,42.805,6.029,CST-1368DR,4302,4686,11564,01.202,552
2023-05-29T06:39:54,42.805,6.029,CST-1368DR,4302,4685,11563,01.202,552
2023-05-29T06:42:56,42.805,6.029,CST-1368DR,4302,4686,11563,01.202,552
2023-05-29T06:45:57,42.805,6.029,CST-1368DR,4302,4684,11560,01.203,552
2023-05-29T06:48:59,42.805,6.029,CST-1368DR,4302,4686,11563,01.202,552
2023-05-29T06:52:01,42.805,6.029,CST-1368DR,4302,4687,11566,01.201,552
2023-05-29T06:55:02,42.805,6.029,CST-1368DR,4302,4686,11565,01.201,552
2023-05-29T06:58:04,42.805,6.029,CST-1368DR,4302,4684,11560,01.203,552
2023-05-29T07:01:05,42.805,6.029,CST-1368DR,4302,4686,11564,01.202,552
2023-05-29T07:04:07,42.805,6.029,CST-1368DR,4302,4686,11564,01.202,552
2023-05-29T07:07:08,42.805,6.029,CST-1368DR,4302,4690,11574,01.198,552
2023-05-29T07:10:10,42.805,6.029,CST-1368DR,4302,4687,11567,01.201,552
2023-05-29T07:13:12,42.805,6.029,CST-1368DR,4302,4685,11563,01.202,552
2023-05-29T07:16:13,42.805,6.029,CST-1368DR,4302,4684,11560,01.203,552
2023-05-29T07:19:15,42.805,6.029,CST-1368DR,4302,4685,11563,01.202,552
2023-05-29T07:22:16,42.805,6.029,CST-1368DR,4302,4684,11560,01.203,552
2023-05-29T07:25:18,42.805,6.029,CST-1368DR,4302,4685,11562,01.202,552
2023-05-29T07:28:19,42.805,6.029,CST-1368DR,4302,4689,11572,01.199,552
2023-05-29T07:31:21,42.805,6.029,CST-1368DR,4302,4686,11565,01.201,552
2023-05-29T07:34:23,42.805,6.029,CST-1368DR,4302,4685,11561,01.203,552
2023-05-29T07:37:24,42.805,6.029,CST-1368DR,4302,4684,11560,01.203,552
2023-05-29T07:40:26,42.805,6.029,CST-1368DR,4302,4685,11563,01.202,552
2023-05-29T07:43:27,42.805,6.029,CST-1368DR,4302,4686,11565,01.201,552
2023-05-29T07:46:29,42.805,6.029,CST-1368DR,4302,4686,11565,01.201,552
2023-05-29T07:49:31,42.805,6.029,CST-1368DR,4302,4684,11560,01.203,552
2023-05-29T07:52:32,42.805,6.029,CST-1368DR,4302,4686,11564,01.202,552
2023-05-29T07:55:34,42.805,6.029,CST-1368DR,4302,4685,11561,01.203,552
2023-05-29T07:58:35,42.805,6.029,CST-1368DR,4302,4693,11582,01.195,552
2023-05-29T08:01:37,42.805,6.029,CST-1368DR,4302,4687,11567,01.201,552
2023-05-29T08:04:38,42.805,6.029,CST-1368DR,4302,4686,11565,01.201,552
2023-05-29T08:07:40,42.805,6.029,CST-1368DR,4302,4686,11564,01.202,552
2023-05-29T08:10:42,42.805,6.029,CST-1368DR,4302,4682,11555,01.205,552
2023-05-29T08:13:43,42.805,6.029,CST-1368DR,4302,4688,11570,01.200,552
2023-05-29T08:16:45,42.805,6.029,CST-1368DR,4302,4685,11562,01.202,552
2023-05-29T08:19:46,42.805,6.029,CST-1368DR,4302,4686,11565,01.201,552
2023-05-29T08:22:48,42.805,6.029,CST-1368DR,4302,4690,11575,01.198,552
2023-05-29T08:25:49,42.805,6.029,CST-1368DR,4302,4682,11554,01.205,552
2023-05-29T08:28:51,42.805,6.029,CST-1368DR,4302,4686,11565,01.201,552
2023-05-29T08:31:53,42.805,6.029,CST-1368DR,4302,4691,11577,01.197,552
2023-05-29T08:34:54,42.805,6.029,CST-1368DR,4302,4688,11570,01.200,552
2023-05-29T08:37:56,42.805,6.029,CST-1368DR,4302,4687,11566,01.201,552
2023-05-29T08:40:57,42.805,6.029,CST-1368DR,4302,4691,11577,01.197,552
2023-05-29T08:43:59,42.805,6.029,CST-1368DR,4302,4686,11563,01.202,552
2023-05-29T08:47:01,42.805,6.029,CST-1368DR,4302,4678,11544,01.209,552
2023-05-29T08:50:02,42.805,6.029,CST-1368DR,4302,4682,11555,01.205,552
2023-05-29T08:53:04,42.805,6.029,CST-1368DR,4302,4680,11550,01.206,552
2023-05-29T08:56:05,42.805,6.029,CST-1368DR,4302,4683,11556,01.204,552
2023-05-29T08:59:07,42.805,6.029,CST-1368DR,4302,4681,11553,01.205,552
2023-05-29T09:02:08,42.805,6.029,CST-1368DR,4302,4683,11557,01.204,552
2023-05-29T09:05:10,42.805,6.029,CST-1368DR,4302,4683,11558,01.204,552
2023-05-29T09:08:12,42.805,6.029,CST-1368DR,4302,4684,11558,01.204,552
2023-05-29T09:11:13,42.805,6.029,CST-1368DR,4302,4683,11557,01.204,552
2023-05-29T09:14:15,42.805,6.029,CST-1368DR,4302,4682,11554,01.205,552
2023-05-29T09:17:16,42.805,6.029,CST-1368DR,4302,4682,11554,01.205,552
2023-05-29T09:20:18,42.805,6.029,CST-1368DR,4302,4681,11552,01.206,552
2023-05-29T09:23:19,42.805,6.029,CST-1368DR,4302,4683,11557,01.204,552
2023-05-29T09:26:21,42.805,6.029,CST-1368DR,4302,4680,11550,01.206,552
2023-05-29T09:29:23,42.805,6.029,CST-1368DR,4302,4686,11565,01.201,552
2023-05-29T09:32:24,42.805,6.029,CST-1368DR,4302,4683,11557,01.204,552
2023-05-29T09:35:26,42.805,6.029,CST-1368DR,4302,4684,11560,01.203,552
2023-05-29T09:38:27,42.805,6.029,CST-1368DR,4302,4683,11557,01.204,552
2023-05-29T09:41:29,42.805,6.029,CST-1368DR,4302,4688,11568,01.200,552
2023-05-29T09:44:30,42.805,6.029,CST-1368DR,4302,4685,11563,01.202,552
2023-05-29T09:47:32,42.805,6.029,CST-1368DR,4302,4687,11567,01.201,552
2023-05-29T09:50:34,42.805,6.029,CST-1368DR,4302,4687,11566,01.201,552
2023-05-29T09:53:35,42.805,6.029,CST-1368DR,4302,4687,11566,01.201,552
2023-05-29T09:56:37,42.805,6.029,CST-1368DR,4302,4679,11548,01.207,552
2023-05-29T09:59:38,42.805,6.029,CST-1368DR,4302,4680,11550,01.206,552
2023-05-29T10:02:40,42.805,6.029,CST-1368DR,4302,4686,11564,01.202,552
2023-05-29T10:05:42,42.805,6.029,CST-1368DR,4302,4684,11560,01.203,552
2023-05-29T10:08:43,42.805,6.029,CST-1368DR,4302,4682,11555,01.205,552
2023-05-29T10:11:45,42.805,6.029,CST-1368DR,4302,4679,11548,01.207,552
2023-05-29T10:14:46,42.805,6.029,CST-1368DR,4302,4680,11550,01.206,552
2023-05-29T10:17:48,42.805,6.029,CST-1368DR,4302,4678,11544,01.209,552
2023-05-29T10:20:49,42.805,6.029,CST-1368DR,4302,4677,11542,01.209,552
2023-05-29T10:23:51,42.805,6.029,CST-1368DR,4302,4679,11548,01.207,552
2023-05-29T10:26:53,42.805,6.029,CST-1368DR,4302,4676,11539,01.210,552
2023-05-29T10:29:54,42.805,6.029,CST-1368DR,4302,4672,11529,01.214,552
2023-05-29T10:32:56,42.805,6.029,CST-1368DR,4302,4677,11542,01.209,552
2023-05-29T10:35:57,42.805,6.029,CST-1368DR,4302,4678,11544,01.209,552
2023-05-29T10:38:59,42.805,6.029,CST-1368DR,4302,4673,11533,01.212,552
2023-05-29T10:42:00,42.805,6.029,CST-1368DR,4302,4677,11543,01.209,552
2023-05-29T10:45:02,42.805,6.029,CST-1368DR,4302,4674,11535,01.212,552
2023-05-29T10:48:04,42.805,6.029,CST-1368DR,4302,4675,11537,01.211,552
2023-05-29T10:51:05,42.805,6.029,CST-1368DR,4302,4676,11540,01.210,552
2023-05-29T10:54:07,42.805,6.029,CST-1368DR,4302,4677,11543,01.209,552
2023-05-29T10:57:08,42.805,6.029,CST-1368DR,4302,4679,11547,01.207,552
2023-05-29T11:00:10,42.805,6.029,CST-1368DR,4302,4675,11536,01.211,552
2023-05-29T11:03:12,42.805,6.029,CST-1368DR,4302,4680,11549,01.207,552
2023-05-29T11:06:13,42.805,6.029,CST-1368DR,4302,4679,11548,01.207,552
2023-05-29T11:09:15,42.805,6.029,CST-1368DR,4302,4675,11537,01.211,552
2023-05-29T11:12:16,42.805,6.029,CST-1368DR,4302,4676,11539,01.210,552
2023-05-29T11:15:18,42.805,6.029,CST-1368DR,4302,4675,11538,01.211,552
2023-05-29T11:18:19,42.805,6.029,CST-1368DR,4302,4675,11537,01.211,552
2023-05-29T11:21:21,42.805,6.029,CST-1368DR,4302,4673,11533,01.212,552
2023-05-29T11:24:23,42.805,6.029,CST-1368DR,4302,4672,11531,01.213,552
2023-05-29T11:27:24,42.805,6.029,CST-1368DR,4302,4672,11531,01.213,552
2023-05-29T11:30:26,42.805,6.029,CST-1368DR,4302,4673,11531,01.213,552
2023-05-29T11:33:27,42.805,6.029,CST-1368DR,4302,4666,11516,01.218,552
2023-05-29T11:36:29,42.805,6.029,CST-1368DR,4302,4676,11541,01.210,552
2023-05-29T11:39:30,42.805,6.029,CST-1368DR,4302,4671,11526,01.215,552
2023-05-29T11:42:32,42.805,6.029,CST-1368DR,4302,4672,11529,01.214,552
2023-05-29T11:45:34,42.805,6.029,CST-1368DR,4302,4667,11517,01.218,552
2023-05-29T11:48:35,42.805,6.029,CST-1368DR,4302,4669,11523,01.216,552
2023-05-29T11:51:37,42.805,6.029,CST-1368DR,4302,4672,11529,01.214,552
2023-05-29T11:54:38,42.805,6.029,CST-1368DR,4302,4666,11515,01.219,552
2023-05-29T11:57:40,42.805,6.029,CST-1368DR,4302,4676,11539,01.210,552
2023-05-29T12:00:42,42.805,6.029,CST-1368DR,4302,4670,11525,01.215,552
2023-05-29T12:03:43,42.805,6.029,CST-1368DR,4302,4672,11531,01.213,552
2023-05-29T12:06:45,42.805,6.029,CST-1368DR,4302,4664,11511,01.220,552
2023-05-29T12:09:46,42.805,6.029,CST-1368DR,4302,4664,11510,01.220,552
2023-05-29T12:12:48,42.805,6.029,CST-1368DR,4302,4669,11521,01.216,552
2023-05-29T12:15:49,42.805,6.029,CST-1368DR,4302,4670,11525,01.215,552
2023-05-29T12:18:51,42.805,6.029,CST-1368DR,4302,4668,11519,01.217,552
2023-05-29T12:21:53,42.805,6.029,CST-1368DR,4302,4675,11536,01.211,552
2023-05-29T12:24:54,42.805,6.029,CST-1368DR,4302,4668,11520,01.217,552
2023-05-29T12:27:56,42.805,6.029,CST-1368DR,4302,4666,11515,01.219,552
2023-05-29T12:30:58,42.805,6.029,CST-1368DR,4302,4673,11531,01.213,552
2023-05-29T12:33:59,42.805,6.029,CST-1368DR,4302,4673,11531,01.213,552
2023-05-29T12:37:01,42.805,6.029,CST-1368DR,4302,4669,11522,01.216,552
2023-05-29T12:40:02,42.805,6.029,CST-1368DR,4302,4670,11525,01.215,552
2023-05-29T12:43:04,42.805,6.029,CST-1368DR,4302,4672,11529,01.214,552
2023-05-29T12:46:06,42.805,6.029,CST-1368DR,4302,4672,11529,01.214,552
2023-05-29T12:49:07,42.805,6.029,CST-1368DR,4302,4668,11519,01.217,552
2023-05-29T12:52:09,42.805,6.029,CST-1368DR,4302,4671,11527,01.214,552
2023-05-29T12:55:10,42.805,6.029,CST-1368DR,4302,4671,11528,01.214,552
2023-05-29T12:58:12,42.805,6.029,CST-1368DR,4302,4673,11531,01.213,552
2023-05-29T13:01:13,42.805,6.029,CST-1368DR,4302,4672,11529,01.214,552
2023-05-29T13:04:15,42.805,6.029,CST-1368DR,4302,4670,11525,01.215,552
2023-05-29T13:07:17,42.805,6.029,CST-1368DR,4302,4672,11531,01.213,552
2023-05-29T13:10:18,42.805,6.029,CST-1368DR,4302,4674,11536,01.211,552
2023-05-29T13:13:20,42.805,6.029,CST-1368DR,4302,4680,11549,01.207,552
2023-05-29T13:16:21,42.805,6.029,CST-1368DR,4302,4666,11516,01.218,552
2023-05-29T13:19:23,42.805,6.029,CST-1368DR,4302,4673,11533,01.212,552
2023-05-29T13:22:24,42.805,6.029,CST-1368DR,4302,4672,11531,01.213,552
2023-05-29T13:25:26,42.805,6.029,CST-1368DR,4302,4682,11554,01.205,552
2023-05-29T13:28:28,42.805,6.029,CST-1368DR,4302,4679,11547,01.207,552
2023-05-29T13:31:29,42.805,6.029,CST-1368DR,4302,4667,11517,01.218,552
2023-05-29T13:34:31,42.805,6.029,CST-1368DR,4302,4669,11523,01.216,552
2023-05-29T13:37:32,42.805,6.029,CST-1368DR,4302,4675,11537,01.211,552
2023-05-29T13:40:34,42.805,6.029,CST-1368DR,4302,4661,11504,01.222,552
2023-05-29T13:43:35,42.805,6.029,CST-1368DR,4302,4672,11529,01.214,552
2023-05-29T13:46:37,42.805,6.029,CST-1368DR,4302,4671,11526,01.215,552
2023-05-29T13:49:39,42.805,6.029,CST-1368DR,4302,4679,11547,01.207,552
2023-05-29T13:52:40,42.805,6.029,CST-1368DR,4302,4669,11521,01.216,552
2023-05-29T13:55:42,42.805,6.029,CST-1368DR,4302,4671,11526,01.215,552
2023-05-29T13:58:43,42.805,6.029,CST-1368DR,4302,4668,11520,01.217,552
2023-05-29T14:01:45,42.805,6.029,CST-1368DR,4302,4664,11511,01.220,552
2023-05-29T14:04:47,42.805,6.029,CST-1368DR,4302,4672,11529,01.214,552
2023-05-29T14:07:48,42.805,6.029,CST-1368DR,4302,4668,11521,01.216,552
2023-05-29T14:10:50,42.805,6.029,CST-1368DR,4302,4671,11528,01.214,552
2023-05-29T14:13:51,42.805,6.029,CST-1368DR,4302,4670,11525,01.215,552
2023-05-29T14:16:53,42.805,6.029,CST-1368DR,4302,4669,11523,01.216,552
2023-05-29T14:19:54,42.805,6.029,CST-1368DR,4302,4661,11504,01.222,552
2023-05-29T14:22:56,42.805,6.029,CST-1368DR,4302,4664,11510,01.220,552
2023-05-29T14:25:58,42.805,6.029,CST-1368DR,4302,4674,11534,01.212,552
2023-05-29T14:28:59,42.805,6.029,CST-1368DR,4302,4664,11510,01.220,552
2023-05-29T14:32:02,42.805,6.029,CST-1368DR,4302,4675,11538,01.211,552
2023-05-29T14:35:03,42.805,6.029,CST-1368DR,4302,4663,11509,01.221,552
2023-05-29T14:38:05,42.805,6.029,CST-1368DR,4302,4672,11531,01.213,552
2023-05-29T14:41:06,42.805,6.029,CST-1368DR,4302,4672,11529,01.214,552
2023-05-29T14:44:08,42.805,6.029,CST-1368DR,4302,4670,11525,01.215,552
2023-05-29T14:47:09,42.805,6.029,CST-1368DR,4302,4662,11506,01.222,552
2023-05-29T14:50:11,42.805,6.029,CST-1368DR,4302,4673,11533,01.212,552
2023-05-29T14:53:13,42.805,6.029,CST-1368DR,4302,4669,11523,01.216,552
2023-05-29T14:56:14,42.805,6.029,CST-1368DR,4302,4667,11517,01.218,552
2023-05-29T14:59:16,42.805,6.029,CST-1368DR,4302,4667,11517,01.218,552
2023-05-29T15:02:17,42.805,6.029,CST-1368DR,4302,4667,11518,01.218,552
2023-05-29T15:05:19,42.805,6.029,CST-1368DR,4302,4670,11524,01.215,552
2023-05-29T15:08:21,42.805,6.029,CST-1368DR,4302,4670,11525,01.215,552
2023-05-29T15:11:22,42.805,6.029,CST-1368DR,4302,4666,11514,01.219,552
2023-05-29T15:14:24,42.805,6.029,CST-1368DR,4302,4666,11515,01.219,552
2023-05-29T15:17:25,42.805,6.029,CST-1368DR,4302,4666,11516,01.218,552
2023-05-29T15:20:27,42.805,6.029,CST-1368DR,4302,4667,11518,01.218,552
2023-05-29T15:23:28,42.805,6.029,CST-1368DR,4302,4669,11521,01.216,552
2023-05-29T15:26:30,42.805,6.029,CST-1368DR,4302,4670,11525,01.215,552
2023-05-29T15:29:32,42.805,6.029,CST-1368DR,4302,4672,11529,01.214,552
2023-05-29T15:32:33,42.805,6.029,CST-1368DR,4302,4673,11533,01.212,552
2023-05-29T15:35:35,42.805,6.029,CST-1368DR,4302,4669,11523,01.216,552
2023-05-29T15:38:36,42.805,6.029,CST-1368DR,4302,4670,11525,01.215,552
2023-05-29T15:41:38,42.805,6.029,CST-1368DR,4302,4670,11524,01.215,552
2023-05-29T15:44:39,42.805,6.029,CST-1368DR,4302,4673,11531,01.213,552
2023-05-29T15:47:41,42.805,6.029,CST-1368DR,4302,4680,11550,01.206,552
2023-05-29T15:50:43,42.805,6.029,CST-1368DR,4302,4687,11566,01.201,552
2023-05-29T15:53:44,42.805,6.029,CST-1368DR,4302,4687,11567,01.201,552
2023-05-29T15:56:46,42.805,6.029,CST-1368DR,4302,4678,11546,01.208,552
2023-05-29T15:59:47,42.805,6.029,CST-1368DR,4302,4677,11541,01.210,552
2023-05-29T16:02:49,42.805,6.029,CST-1368DR,4302,4680,11549,01.207,552
2023-05-29T16:05:50,42.805,6.029,CST-1368DR,4302,4676,11539,01.210,552
2023-05-29T16:08:52,42.805,6.029,CST-1368DR,4302,4672,11529,01.214,552
2023-05-29T16:11:54,42.805,6.029,CST-1368DR,4302,4675,11536,01.211,552
2023-05-29T16:14:55,42.805,6.029,CST-1368DR,4302,4677,11543,01.209,552
2023-05-29T16:17:57,42.805,6.029,CST-1368DR,4302,4680,11550,01.206,552
2023-05-29T16:20:58,42.805,6.029,CST-1368DR,4302,4669,11523,01.216,552
2023-05-29T16:24:00,42.805,6.029,CST-1368DR,4302,4673,11532,01.213,552
2023-05-29T16:27:02,42.805,6.029,CST-1368DR,4302,4672,11531,01.213,552
2023-05-29T16:30:03,42.805,6.029,CST-1368DR,4302,4674,11534,01.212,552
2023-05-29T16:33:05,42.805,6.029,CST-1368DR,4302,4673,11533,01.212,552
2023-05-29T16:36:06,42.805,6.029,CST-1368DR,4302,4679,11547,01.207,552